Weather observations for the past three days for
Burnet, Burnet Municipal Craddock Field
Imperial (Metric)
Date Time (cdt) Wind (mph) Vis. (mi.) Weather Sky Cond. Temperature (ºF) Relative Humidity Wind Chill (°F) Heat Index (°F) Pressure Precipitation (in)
Air Dwpt 6 hour altimeter (in) sea level (mb) 1 hr 3 hr 6 hr
Max. Min.
22 04:53 SE 5 10.00 Mostly Cloudy SCT014 BKN023 75 73 94% 73 30.12 1017.9
22 03:53 SE 3 10.00 Overcast OVC014 75.9 73 91% 76 30.12 1017.8
22 02:53 S 5 10.00 Mostly Cloudy BKN020 77 73 88% 78 30.12 1018.0
22 01:53 Calm 10.00 Fair CLR 77 73 88% 78 30.13 1018.4
22 00:53 SE 3 10.00 Partly Cloudy FEW032 SCT047 77 71.1 88 77 82% 79 30.13 1018.3
21 23:53 Calm 10.00 A Few Clouds FEW046 77 70 79% 79 30.13 1018.3
21 22:53 E 5 10.00 Fair CLR 79 70 74% 82 30.12 1018.0
21 21:53 E 5 10.00 Fair CLR 79 69.1 72% 82 30.11 1017.7
21 20:53 E 6 10.00 Fair CLR 82 69.1 65% 85 30.1 1017.3
21 19:53 E 10 10.00 Fair CLR 86 69.1 57% 90 30.09 1017.0
21 18:53 SE 9 G 21 10.00 Fair CLR 88 70 89.1 84.9 55% 93 30.08 1016.8
21 17:53 E 10 G 20 10.00 A Few Clouds FEW045 89.1 70 53% 94 30.09 1016.8
21 16:53 E 10 G 21 10.00 Mostly Cloudy FEW041 SCT050 BKN110 87.1 71.1 59% 93 30.1 1017.5
21 15:53 SE 9 10.00 Partly Cloudy SCT040 SCT110 88 71.1 57% 94 30.12 1018.0
21 14:53 E 7 10.00 Mostly Cloudy BKN035 BKN050 87.1 72 61% 94 30.14 1018.6
21 13:53 E 7 10.00 Mostly Cloudy SCT041 BKN065 BKN080 86 71.1 61% 92 30.16 1019.3
21 12:53 SE 7 10.00 A Few Clouds FEW036 86 72 86 73.9 63% 92 30.18 1020.0
21 11:53 SE 7 10.00 Mostly Cloudy BKN031 82.9 71.1 67% 88 30.19 1020.6
21 10:53 Vrbl 7 10.00 Mostly Cloudy SCT023 BKN033 BKN047 82 72 72% 87 30.2 1020.7
21 09:53 E 8 10.00 Fair CLR 79 72 79% 82 30.19 1020.7
21 08:53 E 6 10.00 Overcast BKN009 OVC022 75.9 73.9 94% 75 30.19 1020.5
21 07:53 E 7 10.00 Mostly Cloudy BKN009 75 73.9 96% 73 30.18 1020.1
21 06:53 E 5 7.00 Overcast FEW008 OVC017 73.9 73.9 75 73.9 100% 30.16 1019.4
21 05:53 E 3 10.00 Overcast SCT008 BKN013 OVC020 73.9 73 97% 30.16 1019.3
21 04:53 SE 3 10.00 Fair CLR 73.9 73.9 100% 30.15 1018.9
21 03:53 SE 3 10.00 A Few Clouds FEW011 73.9 73.9 100% 30.15 1019.1
21 02:53 E 5 10.00 Fair CLR 73.9 73 97% 30.15 1019.1
21 01:53 SE 5 10.00 Fair CLR 75 73 94% 73 30.17 1019.8
21 00:53 E 5 10.00 Fair CLR 75 73 86 75 94% 73 30.18 1020.0
20 23:53 E 6 10.00 Fair CLR 75.9 73 91% 76 30.17 1020.0
20 22:53 E 5 10.00 Mostly Cloudy BKN075 BKN100 77 72 85% 78 30.17 1019.7
20 21:53 SE 7 10.00 Overcast FEW028 BKN036 OVC065 77 73 88% 78 30.15 1019.3
20 20:53 E 6 10.00 A Few Clouds FEW060 81 71.1 72% 85 30.13 1018.4
20 19:53 E 7 10.00 A Few Clouds FEW095 82.9 71.1 67% 88 30.11 1017.8
20 18:53 E 12 G 21 10.00 A Few Clouds FEW038 86 72 87.1 82 63% 92 30.1 1017.3
20 17:53 E 10 G 26 10.00 Mostly Cloudy FEW037 SCT065 BKN090 86 72 63% 92 30.1 1017.4
20 16:53 E 14 G 30 10.00 Mostly Cloudy FEW034 BKN095 84.9 72 65% 91 30.1 1017.5
20 15:53 E 13 G 24 10.00 Overcast FEW032 BKN080 OVC100 84.9 73 68% 92 30.12 1018.0
20 14:53 E 14 G 26 10.00 Mostly Cloudy FEW031 SCT044 BKN090 84.9 73 68% 92 30.13 1018.4
20 13:53 E 14 10.00 Mostly Cloudy SCT028 SCT037 BKN060 84.9 73.9 70% 92 30.14 1018.9
20 12:53 E 13 10.00 Mostly Cloudy BKN021 BKN030 BKN037 82 73.9 84 75 77% 88 30.16 1019.7 0.02
20 11:53 E 12 G 20 10.00 Mostly Cloudy FEW015 BKN031 81 75 82% 87 30.16 1019.7
20 10:53 E 13 10.00 Overcast SCT013 BKN021 OVC027 79 75 88% 83 30.16 1019.6
20 09:53 E 9 G 20 10.00 Light Rain BKN010 OVC014 75.9 75 97% 75 30.16 1019.8 0.02
20 08:53 E 9 10.00 Overcast OVC009 75 73.9 96% 73 30.14 1019.2 0.01
20 07:53 E 9 6.00 Fog/Mist BKN008 OVC014 75 73.9 96% 73 30.12 1018.6 0.01
20 06:53 E 9 10.00 Overcast BKN008 OVC016 75 73.9 75 73 96% 73 30.1 1017.8 0.03
20 05:53 E 7 G 18 10.00 Partly Cloudy FEW008 SCT024 73.9 73.9 100% 30.09 1017.3
20 04:53 E 8 10.00 Overcast BKN009 BKN014 OVC021 73.9 73.9 100% 30.08 1017.0 0.01
20 03:53 NE 10 G 18 10.00 Overcast SCT008 BKN020 OVC028 73.9 73 97% 30.08 1016.8 0.01 0.02
20 02:53 NE 12 G 20 8.00 Light Rain BKN009 BKN013 73 73 100% 30.08 1016.6 0.01
20 01:53 NE 10 10.00 Light Rain FEW030 SCT038 BKN110 73 73 100% 30.08 1017.1
20 00:53 NE 8 10.00 Light Rain BKN090 BKN110 73 72 73 71.1 96% 30.1 1017.7 0.02 0.48
19 23:53 NE 8 3.00 Heavy Rain Fog/Mist SCT048 BKN055 OVC075 72 72 100% 30.13 1018.6 0.12
19 22:53 NE 9 5.00 Rain Fog/Mist FEW009 FEW046 OVC095 72 72 100% 30.13 1018.4 0.15
19 21:53 NE 10 7.00 Rain FEW009 SCT060 OVC100 72 71.1 97% 30.11 1017.9 0.11 0.19
19 20:53 NE 10 G 20 9.00 Light Rain OVC085 71.1 70 96% 30.09 1017.4 0.06
19 19:53 NE 9 9.00 Light Rain BKN090 BKN110 71.1 69.1 94% 30.06 1016.3 0.02
19 18:53 NE 10 G 22 5.00 Rain Fog/Mist FEW060 SCT090 OVC110 71.1 70 82.9 71.1 96% 30.05 1016.1 0.04 0.09
19 17:53 NE 12 G 18 10.00 Light Rain BKN012 BKN100 73.9 73 97% 30.04 1015.8 0.01
19 16:53 E 15 G 25 10.00 Light Rain FEW070 BKN100 BKN120 73.9 73 97% 30.05 1015.9 0.02
19 15:53 E 13 G 28 10.00 Light Rain FEW018 BKN070 OVC100 77 73 88% 78 30.04 1015.6 0.02
19 14:53 E 15 G 29 10.00 Partly Cloudy FEW038 SCT048 82 71.1 69% 86 30.03 1015.2 0.01
19 13:53 E 10 G 25 6.00 Light Rain Fog/Mist SCT034 BKN047 OVC075 75.9 73 91% 76 30.04 1015.5 0.01
19 12:53 E 14 G 23 10.00 Overcast BKN024 BKN029 OVC090 80.1 72 82 73 76% 84 30.05 1015.7
19 11:53 E 13 G 24 10.00 Overcast SCT021 BKN027 OVC034 80.1 71.1 74% 84 30.04 1015.5
19 10:53 E 8 G 18 10.00 Overcast BKN017 OVC025 79 72 79% 82 30.03 1015.1
19 09:53 E 8 10.00 Overcast OVC010 75.9 72 88% 76 30.03 1015.0
19 08:53 NE 9 10.00 Overcast OVC009 75 71.1 88% 75 30.02 1014.7
19 07:53 NE 9 10.00 Overcast OVC008 73 71.1 94% 30 1014.0
19 06:53 E 7 10.00 Overcast OVC033 73 70 75.9 73 90% 29.98 1013.2
19 05:53 E 7 10.00 Overcast OVC025 73 69.1 87% 29.96 1012.4
Date Time (cdt) Wind (mph) Vis. (mi.) Weather Sky Cond. Air Dwpt Max. Min. Relative Humidity Wind Chill (°F) Heat Index (°F) altimeter (in) sea level (mb) 1 hr 3 hr 6 hr
6 hour
Temperature (ºF) Pressure Precipitation (in)